| time (UTC) | temp C | wind direction | speed KPH | gust KPH | rain 1hr cm | rain 24hr cm | rain mn cm | humidity % | barometer mb |
| 20260903130609 | 10 | 202 | 0.0 | 1.6 | 0.00 | 0.00 | 0.00 | 68 | 1021.4 |
| 20260903130111 | 10 | 223 | 0.0 | 1.6 | 0.00 | 0.00 | 0.00 | 67 | 1021.3 |
| 20260903120112 | 10 | 203 | 0.0 | 3.2 | 0.00 | 0.00 | 0.00 | 67 | 1021.2 |
| 20260903110606 | 10 | 142 | 1.6 | 9.7 | 0.00 | 0.00 | 0.00 | 69 | 1020.7 |
| 20260903110112 | 10 | 132 | 0.0 | 9.7 | 0.00 | 0.00 | 0.00 | 71 | 1020.7 |
| 20260903100606 | 10 | 200 | 0.0 | 1.6 | 0.00 | 0.00 | 0.00 | 71 | 1020.8 |
| 20260903090606 | 11 | 186 | 0.0 | 3.2 | 0.00 | 0.00 | 0.00 | 70 | 1020.3 |
| 20260903090112 | 11 | 196 | 0.0 | 3.2 | 0.00 | 0.00 | 0.00 | 70 | 1020.4 |
| 20260903080606 | 11 | 192 | 0.0 | 1.6 | 0.00 | 0.00 | 0.00 | 71 | 1020.6 |
| 20260903080111 | 11 | 199 | 0.0 | 1.6 | 0.00 | 0.00 | 0.00 | 71 | 1020.7 |
| 20260903070606 | 12 | 196 | 0.0 | 0.0 | 0.00 | 0.00 | 0.00 | 66 | 1020.5 |
| 20260903070112 | 12 | 196 | 0.0 | 0.0 | 0.00 | 0.00 | 0.00 | 65 | 1020.5 |
| 20260903060111 | 12 | 182 | 0.0 | 0.0 | 0.00 | 0.00 | 0.00 | 63 | 1020.1 |
| 20260903050606 | 13 | 28 | 0.0 | 1.6 | 0.00 | 0.00 | 0.00 | 59 | 1020.1 |
| 20260903040606 | 13 | 39 | 0.0 | 1.6 | 0.00 | 0.00 | 0.00 | 60 | 1020.0 |
| 20260903030606 | 15 | 30 | 0.0 | 0.0 | 0.00 | 0.00 | 0.00 | 52 | 1019.7 |
| 20260903030112 | 15 | 28 | 0.0 | 0.0 | 0.00 | 0.00 | 0.00 | 50 | 1019.6 |
| 20260903020607 | 17 | 20 | 0.0 | 4.8 | 0.00 | 0.00 | 0.00 | 48 | 1019.2 |
| 20260903020111 | 17 | 21 | 1.6 | 4.8 | 0.00 | 0.00 | 0.00 | 47 | 1019.1 |
| 20260903010606 | 19 | 59 | 4.8 | 20.9 | 0.00 | 0.00 | 0.00 | 45 | 1019.3 |
| 20260903010112 | 19 | 136 | 4.8 | 20.9 | 0.00 | 0.00 | 0.00 | 44 | 1019.2 |
| 20260903000606 | 21 | 20 | 4.8 | 14.5 | 0.00 | 0.00 | 0.00 | 38 | 1019.4 |
| 20260903000112 | 21 | 18 | 3.2 | 19.3 | 0.00 | 0.00 | 0.00 | 36 | 1019.4 |
| 20260902230606 | 25 | 202 | 3.2 | 12.9 | 0.00 | 0.00 | 0.00 | 26 | 1019.2 |
| 20260902230111 | 25 | 216 | 1.6 | 12.9 | 0.00 | 0.00 | 0.00 | 26 | 1019.1 |
| 20260902220605 | 25 | 169 | 1.6 | 11.3 | 0.00 | 0.00 | 0.00 | 27 | 1020.0 |
| 20260902220112 | 25 | 235 | 1.6 | 11.3 | 0.00 | 0.00 | 0.00 | 28 | 1020.1 |
| 20260902210606 | 24 | 20 | 3.2 | 16.1 | 0.00 | 0.00 | 0.00 | 26 | 1020.7 |
| 20260902210111 | 24 | 20 | 4.8 | 16.1 | 0.00 | 0.00 | 0.00 | 26 | 1020.6 |
| 20260902200606 | 22 | 19 | 1.6 | 16.1 | 0.00 | 0.00 | 0.00 | 30 | 1021.0 |
| 20260902200111 | 23 | 14 | 1.6 | 16.1 | 0.00 | 0.00 | 0.00 | 29 | 1021.2 |
| 20260902190605 | 22 | 13 | 4.8 | 14.5 | 0.00 | 0.00 | 0.00 | 33 | 1022.0 |
| 20260902190111 | 22 | 13 | 3.2 | 14.5 | 0.00 | 0.00 | 0.00 | 34 | 1021.9 |
| 20260902180606 | 21 | 14 | 4.8 | 16.1 | 0.00 | 0.00 | 0.00 | 37 | 1022.6 |
| 20260902180111 | 21 | 14 | 6.4 | 16.1 | 0.00 | 0.00 | 0.00 | 39 | 1022.8 |
| 20260902170606 | 21 | 16 | 3.2 | 22.5 | 0.00 | 0.00 | 0.00 | 41 | 1022.7 |
| 20260902160606 | 19 | 15 | 3.2 | 16.1 | 0.00 | 0.00 | 0.00 | 46 | 1022.8 |
| 20260902160111 | 19 | 15 | 3.2 | 16.1 | 0.00 | 0.00 | 0.00 | 47 | 1022.8 |
| 20260902150605 | 17 | 14 | 3.2 | 9.7 | 0.00 | 0.00 | 0.00 | 52 | 1023.7 |
| 20260902150111 | 17 | 16 | 1.6 | 12.9 | 0.00 | 0.00 | 0.00 | 54 | 1023.7 |
| 20260902140605 | 13 | 197 | 0.0 | 4.8 | 0.00 | 0.00 | 0.00 | 67 | 1023.4 |